Weather History for Paducah, KY

Change the Weather History Date:

Thursday, July 18, 2013

  Actual Average Record
Temperature  
Mean Temperature 82 °F 79 °F  
Max Temperature 92 °F 89 °F 101 °F (2012)
Min Temperature 72 °F 69 °F 58 °F (1967)
Degree Days  
Heating Degree Days 0 0  
Month to date heating degree days 0 0  
Since 1 June heating degree days 0 4  
Since 1 July heating degree days 0 0  
Cooling Degree Days 17 14  
Month to date cooling degree days 204 252  
Year to date cooling degree days 699 744  
Since 1 June cooling degree days 521 572  
Growing Degree Days 32 (Base 50)    
Moisture  
Dew Point 73 °F    
Average Humidity 73    
Maximum Humidity 94    
Minimum Humidity 52    
Precipitation  
Precipitation 0.02 in 0.15 in 2.15 in (1938)
Month to date precipitation 0.73 2.69  
Year to date precipitation 35.31 27.97  
Snow  
Snow 0.00 in 0.00 in - ()
Month to date snowfall 0.0 0.0  
Since 1 June snowfall 0.0 0.0  
Since 1 July snowfall 0.0 0.0  
Snow Depth 0.00 in    
Sea Level Pressure  
Sea Level Pressure 30.13 in    
Wind  
Wind Speed 4 mph (SE)    
Max Wind Speed 14 mph    
Max Gust Speed 17 mph    
Visibility 6 miles    
Events Rain , Thunderstorm    
T = Trace of Precipitation, MM = Missing Value Source: NWS Daily Summary

Daily Weather History Graph

Daily Weather History Graph

Search for Another Location

Airport:

Trip Planner

Search our weather history database for the weather conditions in past years. The results will help you decide how hot, cold, wet, or windy it might be!

Date:

Astronomy

Jul. 18, 2013 Rise Set
Actual Time 5:49 AM CDT 8:12 PM CDT
Civil Twilight 5:19 AM CDT 8:42 PM CDT
Nautical Twilight 4:42 AM CDT 9:19 PM CDT
Astronomical Twilight 4:02 AM CDT 9:59 PM CDT
Moon 4:10 PM CDT (7/18) 1:38 AM CDT (7/18)
Length of Visible Light 15h 23m
Length of Day
14h 23m
Waxing Gibbous, 77% of the Moon is Illuminated
Jul 18
Waxing Gibbous
Jul 22
Full
Jul 29
Last Quarter
Aug 6
New
Aug 14
First Quarter

Hourly Weather History & Observations

Time (CDT) Temp. Heat Index Dew Point Humidity Pressure Visibility Wind Dir Wind Speed Gust Speed Precip Events Conditions
12:53 AM 75.0 °F - 72.0 °F 90% 30.19 in 6.0 mi West 3.5 mph - N/A   Clear
1:53 AM 75.0 °F - 72.0 °F 90% 30.17 in 6.0 mi Calm Calm - N/A   Clear
2:53 AM 73.9 °F - 72.0 °F 93% 30.16 in 5.0 mi Calm Calm - N/A   Clear
3:53 AM 73.0 °F - 72.0 °F 96% 30.15 in 4.0 mi Calm Calm - N/A   Clear
4:53 AM 73.0 °F - 71.1 °F 93% 30.14 in 5.0 mi Calm Calm - N/A   Clear
5:13 AM 73.4 °F - 71.6 °F 94% 30.16 in 1.8 mi Calm Calm - N/A   Clear
5:23 AM 73.4 °F - 71.6 °F 94% 30.17 in 3.0 mi Calm Calm - N/A   Clear
5:53 AM 73.0 °F - 71.1 °F 93% 30.16 in 3.0 mi Calm Calm - N/A   Clear
6:07 AM 73.4 °F - 71.6 °F 94% 30.17 in 2.5 mi Calm Calm - N/A   Clear
6:16 AM 73.4 °F - 71.6 °F 94% 30.17 in 3.0 mi Calm Calm - N/A   Clear
6:23 AM 73.4 °F - 73.4 °F 100% 30.17 in 2.5 mi Calm Calm - N/A   Clear
6:34 AM 73.4 °F - 73.4 °F 100% 30.17 in 3.0 mi Calm Calm - N/A   Clear
6:43 AM 75.2 °F - 73.4 °F 94% 30.17 in 2.5 mi Calm Calm - N/A   Clear
6:53 AM 75.0 °F - 73.9 °F 96% 30.17 in 2.0 mi Calm Calm - N/A   Clear
7:06 AM 75.2 °F - 73.4 °F 94% 30.18 in 4.0 mi Calm Calm - N/A   Clear
7:53 AM 81.0 °F 86.7 °F 75.0 °F 82% 30.17 in 6.0 mi Calm Calm - N/A   Haze
8:53 AM 86.0 °F 96.0 °F 75.9 °F 72% 30.17 in 10.0 mi Variable 3.5 mph - N/A   Clear
9:53 AM 88.0 °F 97.5 °F 75.0 °F 65% 30.16 in 10.0 mi ENE 5.8 mph - N/A   Clear
10:35 AM 89.6 °F 98.2 °F 73.4 °F 59% 30.18 in 9.0 mi NE 9.2 mph - N/A   Clear
10:53 AM 90.0 °F 99.0 °F 73.9 °F 59% 30.16 in 9.0 mi NE 9.2 mph - N/A   Clear
11:53 AM 89.1 °F 98.0 °F 73.9 °F 61% 30.15 in 8.0 mi ENE 9.2 mph - N/A   Mostly Cloudy
12:53 PM 90.0 °F 99.0 °F 73.9 °F 59% 30.12 in 9.0 mi ENE 10.4 mph - N/A   Clear
1:53 PM 88.0 °F 95.6 °F 73.0 °F 61% 30.10 in 7.0 mi ENE 10.4 mph - N/A   Mostly Cloudy
2:04 PM 82.4 °F 89.5 °F 75.2 °F 79% 30.11 in 2.5 mi SSE 10.4 mph - 0.02 in Rain , Thunderstorm Light Thunderstorms and Rain
2:11 PM 82.4 °F 89.5 °F 75.2 °F 79% 30.11 in 4.0 mi SSW 8.1 mph - 0.02 in Rain , Thunderstorm Light Thunderstorms and Rain
2:28 PM 86.0 °F 95.1 °F 75.2 °F 70% 30.09 in 5.0 mi Calm Calm - 0.02 in   Haze
2:53 PM 88.0 °F 101.3 °F 78.1 °F 72% 30.06 in 5.0 mi Calm Calm - 0.02 in   Haze
3:53 PM 87.1 °F 99.8 °F 78.1 °F 74% 30.06 in 6.0 mi Variable 4.6 mph - N/A   Haze
4:53 PM 91.0 °F 98.2 °F 72.0 °F 53% 30.04 in 10.0 mi ESE 5.8 mph - N/A   Clear
5:53 PM 88.0 °F 95.6 °F 73.0 °F 61% 30.04 in 10.0 mi SE 6.9 mph - N/A   Clear
6:53 PM 84.0 °F 89.6 °F 72.0 °F 67% 30.06 in 9.0 mi SSE 8.1 mph - N/A   Clear
7:53 PM 82.0 °F 87.9 °F 73.9 °F 76% 30.05 in 8.0 mi South 4.6 mph - N/A   Clear
8:53 PM 79.0 °F - 75.0 °F 88% 30.05 in 7.0 mi South 4.6 mph - N/A   Clear
9:53 PM 78.1 °F - 73.9 °F 87% 30.06 in 6.0 mi Calm Calm - N/A   Clear
10:53 PM 77.0 °F - 73.9 °F 90% 30.05 in 6.0 mi WSW 3.5 mph - N/A   Clear
11:53 PM 75.9 °F - 73.9 °F 94% 30.05 in 5.0 mi South 3.5 mph - N/A   Clear